CAPE
1031 256 226 176 319 836 1062 1071 1053 920 775 702 619 580 627 848 1195 1373 1330 1031 635 385 335 340 341 307 255 219 211 143 99 124
1521 829 525 396 274 303 558 812 781 685 686 723 821 837 888 1069 1216 1256 1401 1411 1278 1054 735 520 467 415 409 378 366 339 136 16
1664 1439 994 856 744 427 332 404 537 693 824 905 864 1062 1157 1274 1141 1513 1240 1307 1384 1273 1034 961 927 869 789 816 850 653 784 890
1928 1824 1436 1233 1083 883 825 788 750 803 999 1167 1284 1282 1589 1463 1472 1160 1420 1228 1315 1356 1240 1021 861 788 1112 867 694 799 941 1060
1244 1974 1945 1770 1563 1446 1273 1348 1120 1135 1254 1535 1410 1583 1490 1409 1253 1197 951 997 1113 1118 1045 960 981 1088 740 777 854 1035 1297 1082
849 1109 1421 1382 1468 1572 1208 1487 1499 1694 1611 1802 1683 1511 1333 1031 1006 674 425 575 417 889 1073 1216 992 735 655 827 1106 945 1108 1024
900 1239 1573 1485 1617 1237 1231 1302 1418 1685 1679 1516 1393 1282 841 306 0 0 0 0 0 260 470 578 758 592 758 770 401 344 202 184
1020 1200 1580 1436 1471 1462 1616 1601 1526 954 865 817 734 425 79 17 0 0 0 0 0 56 271 440 473 543 211 95 51 4 0 0
1254 1177 1356 1372 1412 1473 1556 963 676 328 223 214 245 109 87 41 7 0 0 0 0 24 215 212 269 117 56 7 0 1 0 1
1449 1509 1311 1349 1152 565 557 457 138 29 22 6 8 6 0 12 1 0 0 2 17 100 100 169 102 30 5 2 2 1 2 3
1680 1680 1670 887 258 32 10 5 5 9 25 16 3 0 0 0 0 0 0 0 7 0 11 38 49 0 0 1 1 1 1 0
2263 1939 592 58 0 0 0 0 0 1 0 0 0 0 0 0 0 0 0 0 6 0 8 9 29 0 0 1 0 0 0 0
1569 630 43 27 0 0 1 1 2 0 0 0 0 0 0 0 0 0 0 0 1 3 7 3 2 0 0 1 0 0 0 0
254 21 1 2 1 2 1 1 2 0 0 0 0 0 0 0 0 0 0 0 0 0 3 13 23 0 0 0 0 0 0 0
5 2 1 2 2 1 0 0 0 0 0 0 0 0 0 0 0 0 0 0 0 0 0 0 0 3 2 1 0 0 0 2
2 2 2 28 33 41 73 47 0 0 0 0 0 0 0 0 0 0 0 0 0 0 0 0 0 0 0 8 16 1 0 0
2 1 7 57 139 224 263 236 0 0 0 0 0 0 0 0 0 0 0 0 0 0 0 0 0 0 0 0 4 5 5 1
1 2 25 110 356 392 386 293 126 36 1 0 0 0 0 0 0 0 0 0 0 0 0 0 0 0 0 0 0 0 5 12
26 85 122 297 363 366 383 351 81 105 36 0 0 0 0 0 0 0 0 0 0 0 0 0 0 0 0 0 0 0 0 5
160 243 351 474 380 301 285 169 53 30 0 0 0 0 3 0 0 0 0 0 0 0 0 0 0 0 0 0 0 0 0 0
CIN
-350 -535 -521 -496 -390 -235 -174 -140 -116 -113 -105 -103 -100 -102 -91 -66 -35 -19 -18 -33 -83 -116 -130 -135 -137 -142 -157 -171 -162 -170 -166 -131
-253 -350 -392 -384 -391 -328 -239 -162 -138 -130 -109 -84 -66 -65 -64 -38 -31 -26 -12 -16 -25 -47 -81 -107 -113 -117 -121 -125 -125 -129 -132 -119
-194 -215 -261 -244 -239 -278 -269 -234 -190 -136 -84 -51 -62 -36 -28 -26 -35 -12 -31 -29 -19 -29 -60 -54 -51 -56 -66 -69 -74 -77 -43 -22
-103 -110 -142 -136 -122 -173 -163 -156 -154 -105 -42 -23 -15 -17 -1 -4 -13 -20 -17 -23 -17 -22 -26 -41 -60 -54 -18 -46 -65 -49 -13 -20
-163 -61 -64 -41 -16 -91 -73 -65 -64 -40 -7 -4 -16 -9 -1 -2 -10 -8 -11 -20 -29 -31 -37 -48 -32 -15 -9 -7 -14 -12 -13 -15
-214 -148 -74 -53 -8 -54 -74 -27 -30 -16 -18 -1 -2 -3 -9 -11 -4 -16 -8 -5 -9 -13 -22 -9 -9 -9 -13 -5 -4 -24 -12 -29
-177 -115 -55 -40 -14 -23 -14 -4 -13 -7 -8 -4 -5 -2 -13 -88 -126 0 0 0 0 -7 -3 -17 -15 -17 -26 -10 -41 -38 -76 -109
-108 -102 -75 -42 -7 -8 -8 -23 -42 -160 -150 -119 -108 -152 -292 -336 0 0 0 0 0 -61 -19 -18 -26 -57 -74 -126 -175 -123 0 0
-92 -115 -82 -51 -4 -19 -17 -116 -191 -226 -245 -238 -221 -265 -251 -262 -277 0 0 0 0 -52 -12 -14 -7 -119 -170 -220 0 0 0 0
-78 -107 -79 -62 -63 -201 -206 -217 -301 -335 -328 -336 -386 -334 0 -299 -186 0 0 -42 -27 -11 -12 -7 -51 -164 -235 0 0 0 0 0
-65 -90 -47 -166 -285 -435 -223 -198 -216 -302 -312 -322 -208 0 0 0 0 0 0 -4 -67 0 -16 -25 -85 0 0 0 0 0 0 0
-77 -63 -258 -448 0 0 0 0 0 0 0 0 0 0 0 0 0 0 0 0 -83 0 -65 -67 -23 0 0 0 0 0 0 0
-131 -261 -475 -456 0 0 0 0 0 0 0 0 0 0 0 0 0 0 0 -7 -101 -112 -95 -83 -57 0 0 0 0 0 0 0
-323 -358 0 -66 0 0 0 0 0 0 0 0 0 0 0 0 0 0 0 0 0 0 -94 -121 -50 -30 -4 0 0 0 0 0
-249 0 0 0 0 0 0 0 0 0 0 0 0 0 0 0 0 0 0 0 0 0 0 0 -36 -37 -8 -3 0 0 0 0
0 0 0 -458 -440 -426 -378 -390 0 0 0 0 0 0 0 0 0 0 0 0 0 0 0 0 0 0 0 -4 -6 -21 0 0
0 0 -509 -407 -325 -254 -191 -178 -27 0 0 0 0 0 0 0 0 0 0 0 0 0 0 0 0 0 0 0 -4 -19 -18 -14
0 0 -444 -327 -165 -111 -80 -83 -192 -304 -117 0 0 0 0 0 0 0 0 0 0 0 0 0 0 0 0 0 0 0 -3 -7
-383 -325 -277 -167 -113 -89 -40 -27 -156 -124 -201 0 0 0 0 0 0 0 0 0 0 0 0 0 0 0 0 0 0 0 0 -8
-227 -177 -116 -68 -52 -54 -42 -79 -141 -111 0 0 0 -7 -19 0 0 0 0 0 0 0 0 0 0 0 0 0 0 0 0 -1
Wind_Speed
9 7 7 7 7 7 7 7 7 7 7 7 7 8 9 9 9 9 10 10 11 11 12 12 13 13 14 14 16 20 26 24
9 6 5 5 6 6 6 6 6 6 6 6 7 8 8 9 10 9 10 9 10 11 11 13 13 15 15 14 15 17 14 19
7 5 4 4 5 5 5 5 6 6 6 6 6 8 8 9 10 10 11 11 10 11 11 12 15 17 16 17 18 17 14 17
5 4 4 3 4 5 4 5 5 5 5 5 5 6 8 10 11 11 13 12 13 12 13 13 14 16 17 15 19 21 23 25
4 4 3 3 3 5 5 4 3 3 3 3 5 7 11 13 14 14 16 14 15 14 14 16 16 15 19 16 16 20 23 25
4 4 4 2 4 5 4 3 3 3 3 4 7 9 10 13 17 22 30 34 18 13 10 11 17 17 17 16 20 21 22 21
4 4 4 2 5 4 5 5 5 7 8 8 8 10 13 18 21 21 23 39 32 27 16 13 14 17 18 17 19 21 21 21
3 4 4 4 4 6 8 10 11 10 11 11 11 11 11 13 17 21 23 24 28 30 25 20 17 15 17 18 18 20 21 20
3 3 5 5 4 7 8 9 11 11 11 11 10 10 8 8 12 17 14 13 12 19 22 20 13 16 16 17 18 18 19 18
4 4 5 6 7 9 9 9 9 10 10 12 12 10 10 15 17 15 14 12 11 8 9 13 12 13 16 17 17 18 18 17
5 5 5 6 7 8 8 8 9 10 11 12 11 12 13 14 16 16 17 15 15 12 11 13 11 11 13 15 18 18 18 16
5 5 6 6 6 6 7 9 10 11 11 10 10 12 14 14 15 15 14 14 13 13 14 14 10 9 13 15 17 18 19 17
6 5 5 5 5 6 7 8 9 10 11 11 12 13 14 15 15 15 15 15 13 14 14 12 12 10 15 18 19 15 16 19
7 5 5 5 4 5 7 7 9 10 11 12 12 13 13 14 16 15 16 15 15 16 16 14 15 8 19 20 21 24 22 21
7 6 6 5 5 6 7 8 10 11 11 11 11 12 15 15 15 15 15 15 16 16 16 18 19 16 18 23 29 32 23 20
8 7 6 5 5 5 5 8 10 11 9 11 11 12 13 14 14 14 14 15 16 17 14 15 15 16 21 19 22 21 25 25
8 7 6 5 5 5 5 9 10 8 8 10 11 12 11 13 14 14 15 14 14 15 15 15 15 17 18 22 23 23 21 27
8 7 6 5 6 5 5 9 8 9 9 10 10 10 12 13 13 14 14 14 15 16 17 19 19 20 21 21 23 24 27 27
7 7 6 5 5 6 6 7 9 9 8 8 8 10 11 11 12 14 15 15 15 16 17 17 17 18 21 23 24 24 27 29
5 5 5 4 6 6 7 6 8 8 8 8 8 9 9 8 10 12 15 15 15 16 17 16 16 18 20 22 25 25 26 26
Wind_Direction
56 81 80 76 68 65 67 69 68 63 59 51 36 30 21 14 10 6 4 3 0 359 356 354 355 358 355 357 351 331 286 263
42 75 76 67 58 55 58 54 46 42 40 34 20 12 6 0 350 350 343 350 348 347 347 342 345 338 341 349 347 342 350 331
45 68 77 72 55 45 40 38 32 27 23 18 10 0 353 345 337 332 327 324 330 332 334 334 330 328 334 332 333 337 344 336
37 53 64 68 50 39 24 20 19 21 19 10 360 351 346 338 330 324 311 311 310 316 322 328 333 330 330 333 328 323 320 319
44 49 58 63 32 44 20 22 22 33 29 16 1 344 342 338 335 327 312 309 301 301 308 311 320 330 329 336 339 332 325 325
52 42 22 28 31 41 40 52 63 66 59 29 4 351 347 337 334 329 319 310 291 291 315 322 317 330 342 343 338 338 335 335
62 40 24 47 358 29 36 32 51 38 28 8 9 3 2 353 341 340 331 332 323 277 318 329 335 337 342 347 350 342 342 343
66 54 45 28 7 13 10 23 17 9 10 21 19 18 21 16 343 331 349 346 322 304 311 325 337 342 346 349 349 349 346 348
80 69 39 36 18 11 11 3 14 11 16 24 32 35 36 25 27 335 343 348 334 331 325 314 352 347 342 343 346 351 352 354
79 57 41 40 22 5 11 11 16 23 19 14 20 30 20 4 6 15 15 28 32 73 41 356 354 11 351 344 351 345 351 354
66 56 44 27 21 13 15 23 17 11 6 5 12 10 10 14 15 15 11 22 32 40 24 14 23 19 357 352 341 339 338 354
47 36 35 34 27 33 21 10 4 8 7 15 20 17 16 20 20 23 21 20 21 12 7 0 15 24 4 350 335 335 331 339
22 46 47 48 44 23 13 9 10 16 19 22 20 19 17 18 19 19 14 10 7 358 358 4 360 354 336 341 338 345 337 325
11 19 26 16 16 11 2 17 13 17 19 17 17 18 15 11 11 9 2 3 360 353 347 347 341 335 322 326 323 319 315 313
25 38 38 29 34 19 27 15 12 4 7 14 14 14 7 7 10 9 8 7 356 352 344 336 323 315 313 314 311 307 315 314
37 40 38 43 42 29 39 354 348 351 9 7 11 10 13 15 14 14 7 2 353 351 354 345 338 324 321 312 313 315 311 311
36 41 41 51 49 39 33 353 355 18 17 14 13 8 10 6 5 7 6 9 8 1 356 350 343 336 328 324 316 311 307 306
46 45 46 51 50 42 29 354 358 7 5 4 4 1 354 354 355 356 359 2 360 355 349 343 339 333 329 322 317 314 308 304
60 57 56 28 16 12 14 10 11 2 3 2 3 354 350 349 349 351 352 358 359 354 349 345 343 338 331 323 317 312 307 306
66 64 54 32 13 16 10 17 5 357 358 349 352 348 340 349 352 352 350 354 354 352 349 347 343 338 330 325 320 317 315 310